Weather History for Ann Arbor, MI

Change the Weather History Date:

Tuesday, October 22, 2013

  Actual Average Record
Temperature  
Mean Temperature 38 °F -  
Max Temperature 51 °F 56 °F 73 °F (2007)
Min Temperature 28 °F 35 °F 25 °F (2008)
Degree Days  
Heating Degree Days 27    
Moisture  
Dew Point 29 °F    
Average Humidity 68    
Maximum Humidity 89    
Minimum Humidity 46    
Precipitation  
Precipitation 0.00 in - - ()
Sea Level Pressure  
Sea Level Pressure 29.90 in    
Wind  
Wind Speed 9 mph (West)    
Max Wind Speed 17 mph    
Max Gust Speed 25 mph    
Visibility 10 miles    
Events      
Averages and records for this station are not official NWS values.
T = Trace of Precipitation, MM = Missing Value Source: NWS Daily Summary

Daily Weather History Graph

Daily Weather History Graph

Search for Another Location

Airport:

Trip Planner

Search our weather history database for the weather conditions in past years. The results will help you decide how hot, cold, wet, or windy it might be!

Date:

Astronomy

Oct. 22, 2013 Rise Set
Actual Time 7:56 AM EDT 6:41 PM EDT
Civil Twilight 7:27 AM EDT 7:10 PM EDT
Nautical Twilight 6:54 AM EDT 7:43 PM EDT
Astronomical Twilight 6:22 AM EDT 8:15 PM EDT
Moon 9:18 PM EDT (10/22) 11:26 AM EDT (10/22)
Length of Visible Light 11h 42m
Length of Day
10h 45m
Waning Gibbous, 87% of the Moon is Illuminated
Oct 22
Waning Gibbous
Oct 26
Last Quarter
Nov 3
New
Nov 10
First Quarter
Nov 17
Full

Hourly Weather History & Observations

Time (EDT) Temp. Windchill Dew Point Humidity Pressure Visibility Wind Dir Wind Speed Gust Speed Precip Events Conditions
12:53 AM 42.1 °F 36.1 °F 34.0 °F 73% 29.86 in 10.0 mi West 10.4 mph - N/A   Overcast
1:23 AM 42.8 °F 36.2 °F 30.2 °F 61% 29.86 in 10.0 mi WNW 12.7 mph 20.7 mph N/A   Overcast
1:36 AM 41.0 °F 33.5 °F 30.2 °F 65% 29.87 in 10.0 mi NW 13.8 mph 21.9 mph N/A   Overcast
1:53 AM 41.0 °F 34.7 °F 28.0 °F 60% 29.88 in 10.0 mi WNW 10.4 mph - N/A   Overcast
2:53 AM 37.9 °F 34.4 °F 27.0 °F 65% 29.89 in 10.0 mi WNW 4.6 mph - N/A   Scattered Clouds
3:53 AM 30.0 °F 25.2 °F 27.0 °F 88% 29.90 in 10.0 mi SW 4.6 mph - N/A   Clear
4:53 AM 30.9 °F 27.5 °F 27.0 °F 85% 29.90 in 10.0 mi WSW 3.5 mph - N/A   Clear
5:53 AM 30.9 °F 27.5 °F 27.0 °F 85% 29.91 in 10.0 mi WSW 3.5 mph - N/A   Clear
6:53 AM 30.0 °F 25.2 °F 26.1 °F 85% 29.92 in 10.0 mi WSW 4.6 mph - N/A   Partly Cloudy
7:53 AM 28.0 °F - 25.0 °F 88% 29.92 in 10.0 mi Calm Calm - N/A   Partly Cloudy
8:53 AM 30.9 °F 26.2 °F 28.0 °F 89% 29.94 in 10.0 mi SW 4.6 mph - N/A   Clear
9:53 AM 36.0 °F 28.5 °F 28.9 °F 76% 29.94 in 10.0 mi WSW 10.4 mph - N/A   Clear
10:53 AM 39.9 °F 33.4 °F 30.9 °F 70% 29.94 in 10.0 mi WSW 10.4 mph - N/A   Clear
11:53 AM 44.1 °F 36.5 °F 30.0 °F 58% 29.93 in 10.0 mi West 17.3 mph 25.3 mph N/A   Mostly Cloudy
12:53 PM 45.0 °F 38.9 °F 28.9 °F 53% 29.93 in 10.0 mi WNW 12.7 mph - N/A   Mostly Cloudy
1:53 PM 46.0 °F 40.6 °F 28.9 °F 51% 29.91 in 10.0 mi West 11.5 mph - N/A   Mostly Cloudy
2:53 PM 48.9 °F - 28.9 °F 46% 29.88 in 10.0 mi West 9.2 mph - N/A   Mostly Cloudy
3:53 PM 48.0 °F - 28.0 °F 46% 29.88 in 10.0 mi West 12.7 mph - N/A   Mostly Cloudy
4:53 PM 48.0 °F - 28.0 °F 46% 29.88 in 10.0 mi West 8.1 mph - N/A   Mostly Cloudy
5:53 PM 46.0 °F 41.9 °F 28.9 °F 51% 29.89 in 10.0 mi WSW 8.1 mph - N/A   Mostly Cloudy
6:53 PM 44.1 °F 40.8 °F 30.0 °F 58% 29.89 in 10.0 mi WSW 5.8 mph - N/A   Overcast
7:53 PM 42.1 °F 38.4 °F 28.9 °F 60% 29.89 in 10.0 mi West 5.8 mph - N/A   Overcast
8:53 PM 39.0 °F - 30.0 °F 70% 29.90 in 10.0 mi Calm Calm - N/A   Overcast
9:53 PM 39.0 °F 35.7 °F 30.9 °F 73% 29.90 in 10.0 mi West 4.6 mph - N/A   Overcast
10:53 PM 39.9 °F 34.5 °F 33.1 °F 77% 29.90 in 10.0 mi West 8.1 mph - N/A   Overcast
11:53 PM 37.9 °F 32.7 °F 34.0 °F 86% 29.90 in 10.0 mi WSW 6.9 mph - N/A   Mostly Cloudy